Private Wetterstation Wechselburg
Wetterdaten: Sonntag, 24.01.2016
Datum Zeit Temp. +2m Bodentemp. Temp.+5cm Temp. Wind Windchill X Diff Temp. Feuchte +2m Feuchte +5cm Sonnenschein Luftdruck Regen Wind Richtung Richtung Sonnenschein Taupunkt Windchill Windben
24.01.2016 00:00 1,5 C 18,3 C 1,4 C 2,8 C 2,8 C 1,3 C 88 % 81 % 0 % 1034,2 hPa 0,0 l/m 0,8 km/h (0 Bft) S-SW 202 0 min -0,3 C 2,8 C 1,6 km/h (1 Bft)
24.01.2016 00:05 1,5 C 18,3 C 1,7 C 2,8 C 2,8 C 1,3 C 88 % 81 % 0 % 1034,2 hPa 0,0 l/m 0,8 km/h (0 Bft) S-SO 157 0 min -0,3 C 2,8 C 4,0 km/h (1 Bft)
24.01.2016 00:10 1,5 C 18,3 C 1,6 C 2,8 C 2,8 C 1,3 C 88 % 81 % 0 % 1034,2 hPa 0,0 l/m 1,6 km/h (1 Bft) S 180 0 min -0,3 C 2,8 C 0,0 km/h (0 Bft)
24.01.2016 00:15 1,5 C 18,3 C 1,6 C 2,8 C 2,8 C 1,3 C 88 % 81 % 0 % 1034,2 hPa 0,0 l/m 1,3 km/h (1 Bft) S-SW 202 0 min -0,3 C 2,8 C 1,8 km/h (1 Bft)
24.01.2016 00:20 1,5 C 18,3 C 1,7 C 2,8 C 2,8 C 1,3 C 88 % 81 % 0 % 1034,2 hPa 0,0 l/m 1,0 km/h (0 Bft) S 180 0 min -0,3 C 2,8 C 4,0 km/h (1 Bft)
24.01.2016 00:25 1,4 C 18,3 C 1,7 C 2,7 C 2,7 C 1,3 C 88 % 81 % 0 % 1034,2 hPa 0,0 l/m 1,1 km/h (1 Bft) SW 225 0 min -0,4 C 2,7 C 5,3 km/h (1 Bft)
24.01.2016 00:30 1,5 C 18,3 C 1,6 C 2,7 C 2,7 C 1,2 C 88 % 81 % 0 % 1034,2 hPa 0,0 l/m 1,6 km/h (1 Bft) SW 225 0 min -0,3 C 2,7 C 2,4 km/h (1 Bft)
24.01.2016 00:35 1,5 C 18,2 C 1,6 C 2,7 C 2,7 C 1,2 C 88 % 81 % 0 % 1034,2 hPa 0,0 l/m 2,1 km/h (1 Bft) S 180 0 min -0,3 C 2,7 C 3,2 km/h (1 Bft)
24.01.2016 00:41 1,5 C 18,2 C 1,6 C 2,7 C 2,7 C 1,2 C 88 % 81 % 0 % 1034,2 hPa 0,0 l/m 1,9 km/h (1 Bft) N 0 0 min -0,3 C 2,7 C 3,2 km/h (1 Bft)
24.01.2016 00:50 1,4 C 18,2 C 1,7 C 2,7 C 2,7 C 1,3 C 88 % 80 % 0 % 1034,2 hPa 0,0 l/m 1,8 km/h (1 Bft) S 180 0 min -0,4 C 2,7 C 0,0 km/h (0 Bft)
24.01.2016 00:55 1,5 C 18,2 C 1,7 C 2,6 C 2,6 C 1,1 C 88 % 81 % 0 % 1034,2 hPa 0,0 l/m 0,8 km/h (0 Bft) O-SO 112 0 min -0,3 C 2,6 C 0,0 km/h (0 Bft)
24.01.2016 01:00 1,2 C 18,3 C 1,4 C 2,5 C 2,5 C 1,3 C 88 % 80 % 0 % 1034,2 hPa 0,0 l/m 0,2 km/h (0 Bft) SO 135 0 min -0,6 C 2,5 C 0,0 km/h (0 Bft)
24.01.2016 01:05 1,2 C 18,3 C 1,5 C 2,5 C 2,5 C 1,3 C 88 % 80 % 0 % 1034,2 hPa 0,0 l/m 0,2 km/h (0 Bft) S-SO 157 0 min -0,6 C 2,5 C 0,0 km/h (0 Bft)
24.01.2016 01:10 1,2 C 18,3 C 1,4 C 2,5 C 2,5 C 1,3 C 88 % 80 % 0 % 1034,2 hPa 0,0 l/m 0,5 km/h (0 Bft) O-SO 112 0 min -0,6 C 2,5 C 1,8 km/h (1 Bft)
24.01.2016 01:15 1,3 C 18,2 C 1,5 C 2,5 C 2,5 C 1,2 C 88 % 80 % 0 % 1034,2 hPa 0,0 l/m 1,4 km/h (1 Bft) O-SO 112 0 min -0,5 C 2,5 C 0,0 km/h (0 Bft)
24.01.2016 01:20 1,4 C 18,2 C 1,5 C 2,6 C 2,6 C 1,2 C 88 % 80 % 0 % 1034,2 hPa 0,0 l/m 1,3 km/h (1 Bft) SO 135 0 min -0,4 C 2,6 C 0,0 km/h (0 Bft)
24.01.2016 01:25 1,3 C 18,3 C 1,5 C 2,5 C 2,5 C 1,2 C 88 % 80 % 0 % 1034,2 hPa 0,0 l/m 0,3 km/h (0 Bft) O-SO 112 0 min -0,5 C 2,5 C 5,8 km/h (2 Bft)
24.01.2016 01:30 1,3 C 18,3 C 1,4 C 2,5 C 2,5 C 1,2 C 88 % 80 % 0 % 1034,2 hPa 0,0 l/m 0,0 km/h (0 Bft) O-NO 67 0 min -0,5 C 2,5 C 0,0 km/h (0 Bft)
24.01.2016 01:35 1,2 C 18,3 C 1,3 C 2,5 C 2,5 C 1,3 C 88 % 80 % 0 % 1034,2 hPa 0,0 l/m 0,0 km/h (0 Bft) O-SO 112 0 min -0,6 C 2,5 C 0,0 km/h (0 Bft)
24.01.2016 01:40 1,2 C 18,3 C 1,3 C 2,5 C 2,5 C 1,3 C 88 % 80 % 0 % 1034,2 hPa 0,0 l/m 0,2 km/h (0 Bft) O-NO 67 0 min -0,6 C 2,5 C 0,0 km/h (0 Bft)
24.01.2016 01:45 1,2 C 18,2 C 1,2 C 2,5 C 2,5 C 1,3 C 88 % 80 % 0 % 1034,2 hPa 0,0 l/m 0,5 km/h (0 Bft) S-SO 157 0 min -0,6 C 2,5 C 0,0 km/h (0 Bft)
24.01.2016 01:50 1,2 C 18,2 C 1,3 C 2,5 C 2,5 C 1,3 C 88 % 80 % 0 % 1034,2 hPa 0,0 l/m 0,3 km/h (0 Bft) SW 225 0 min -0,6 C 2,5 C 1,9 km/h (1 Bft)
24.01.2016 01:55 1,2 C 18,2 C 1,2 C 2,5 C 2,5 C 1,3 C 88 % 80 % 0 % 1034,2 hPa 0,0 l/m 0,2 km/h (0 Bft) W-SW 247 0 min -0,6 C 2,5 C 0,0 km/h (0 Bft)
24.01.2016 02:00 1,2 C 18,2 C 1,4 C 2,5 C 2,5 C 1,3 C 88 % 80 % 0 % 1034,2 hPa 0,0 l/m 0,6 km/h (0 Bft) SW 225 0 min -0,6 C 2,5 C 2,7 km/h (1 Bft)
24.01.2016 02:05 1,3 C 18,2 C 1,3 C 2,5 C 2,5 C 1,2 C 88 % 80 % 0 % 1034,2 hPa 0,0 l/m 1,0 km/h (0 Bft) SW 225 0 min -0,5 C 2,5 C 3,1 km/h (1 Bft)
24.01.2016 02:10 1,4 C 18,2 C 1,5 C 2,5 C 2,5 C 1,1 C 88 % 80 % 0 % 1034,2 hPa 0,0 l/m 0,8 km/h (0 Bft) S-SW 202 0 min -0,4 C 2,5 C 1,8 km/h (1 Bft)
24.01.2016 02:15 1,5 C 18,2 C 1,6 C 2,6 C 2,6 C 1,1 C 88 % 79 % 0 % 1034,2 hPa 0,0 l/m 0,6 km/h (0 Bft) NO 45 0 min -0,3 C 2,6 C 1,6 km/h (1 Bft)
24.01.2016 02:20 1,5 C 18,2 C 1,6 C 2,6 C 2,6 C 1,1 C 88 % 79 % 0 % 1034,2 hPa 0,0 l/m 1,3 km/h (1 Bft) W-SW 247 0 min -0,3 C 2,6 C 2,7 km/h (1 Bft)
24.01.2016 02:25 1,5 C 18,2 C 1,6 C 2,7 C 2,7 C 1,2 C 88 % 79 % 0 % 1034,2 hPa 0,0 l/m 1,6 km/h (1 Bft) W 270 0 min -0,3 C 2,7 C 0,0 km/h (0 Bft)
24.01.2016 02:30 1,6 C 18,2 C 1,6 C 2,7 C 2,7 C 1,1 C 88 % 79 % 0 % 1034,2 hPa 0,0 l/m 1,4 km/h (1 Bft) W-SW 247 0 min -0,2 C 2,7 C 6,8 km/h (2 Bft)
24.01.2016 02:35 1,7 C 18,1 C 1,7 C 2,8 C 2,8 C 1,1 C 88 % 79 % 0 % 1034,2 hPa 0,0 l/m 1,3 km/h (1 Bft) W-SW 247 0 min -0,1 C 2,8 C 0,0 km/h (0 Bft)
24.01.2016 02:40 1,7 C 18,1 C 1,6 C 2,9 C 2,9 C 1,2 C 88 % 79 % 0 % 1034,2 hPa 0,0 l/m 1,3 km/h (1 Bft) O-NO 67 0 min -0,1 C 2,9 C 0,0 km/h (0 Bft)
24.01.2016 02:45 1,6 C 18,2 C 1,6 C 2,8 C 2,8 C 1,2 C 88 % 79 % 0 % 1034,2 hPa 0,0 l/m 0,5 km/h (0 Bft) SW 225 0 min -0,2 C 2,8 C 3,1 km/h (1 Bft)
24.01.2016 02:50 1,5 C 18,2 C 1,6 C 2,8 C 2,8 C 1,3 C 88 % 79 % 0 % 1034,2 hPa 0,0 l/m 0,5 km/h (0 Bft) W-SW 247 0 min -0,3 C 2,8 C 1,9 km/h (1 Bft)
24.01.2016 02:55 1,5 C 18,1 C 1,6 C 2,7 C 2,7 C 1,2 C 88 % 79 % 0 % 1034,2 hPa 0,0 l/m 0,5 km/h (0 Bft) S-SO 157 0 min -0,3 C 2,7 C 3,9 km/h (1 Bft)
24.01.2016 03:00 1,5 C 18,1 C 1,6 C 2,7 C 2,7 C 1,2 C 88 % 79 % 0 % 1034,2 hPa 0,0 l/m 0,5 km/h (0 Bft) SO 135 0 min -0,3 C 2,7 C 0,0 km/h (0 Bft)
24.01.2016 03:05 1,5 C 18,1 C 1,6 C 2,7 C 2,7 C 1,2 C 88 % 79 % 0 % 1034,2 hPa 0,0 l/m 0,5 km/h (0 Bft) S 180 0 min -0,3 C 2,7 C 0,0 km/h (0 Bft)
24.01.2016 03:10 1,5 C 18,1 C 1,7 C 2,6 C 2,6 C 1,1 C 88 % 79 % 0 % 1034,2 hPa 0,0 l/m 0,5 km/h (0 Bft) W 270 0 min -0,3 C 2,6 C 0,0 km/h (0 Bft)
24.01.2016 03:15 1,5 C 18,1 C 1,4 C 2,5 C 2,5 C 1,0 C 88 % 79 % 0 % 1034,2 hPa 0,0 l/m 0,3 km/h (0 Bft) S 180 0 min -0,3 C 2,5 C 1,9 km/h (1 Bft)
24.01.2016 03:20 1,3 C 18,2 C 1,3 C 2,5 C 2,5 C 1,2 C 88 % 79 % 0 % 1034,2 hPa 0,0 l/m 0,3 km/h (0 Bft) SW 225 0 min -0,5 C 2,5 C 0,0 km/h (0 Bft)
24.01.2016 03:25 1,3 C 18,2 C 1,5 C 2,5 C 2,5 C 1,2 C 88 % 79 % 0 % 1034,2 hPa 0,0 l/m 0,3 km/h (0 Bft) O-NO 67 0 min -0,5 C 2,5 C 0,0 km/h (0 Bft)
24.01.2016 03:30 1,2 C 18,2 C 1,2 C 2,4 C 2,4 C 1,2 C 88 % 79 % 0 % 1034,2 hPa 0,0 l/m 0,0 km/h (0 Bft) NO 45 0 min -0,6 C 2,4 C 0,0 km/h (0 Bft)
24.01.2016 03:35 1,2 C 18,2 C 1,2 C 2,4 C 2,4 C 1,2 C 88 % 79 % 0 % 1034,2 hPa 0,0 l/m 0,0 km/h (0 Bft) NW 315 0 min -0,6 C 2,4 C 0,0 km/h (0 Bft)
24.01.2016 03:41 1,1 C 18,2 C 1,3 C 2,3 C 2,3 C 1,2 C 88 % 79 % 0 % 1034,2 hPa 0,0 l/m 0,0 km/h (0 Bft) N 0 0 min -0,7 C 2,3 C 2,4 km/h (1 Bft)
24.01.2016 03:50 1,2 C 18,2 C 1,5 C 2,4 C 2,4 C 1,2 C 88 % 79 % 0 % 1034,2 hPa 0,0 l/m 0,5 km/h (0 Bft) SW 225 0 min -0,6 C 2,4 C 0,0 km/h (0 Bft)
24.01.2016 03:55 1,2 C 18,1 C 1,5 C 2,5 C 2,5 C 1,3 C 88 % 79 % 0 % 1034,2 hPa 0,0 l/m 0,3 km/h (0 Bft) W-SW 247 0 min -0,6 C 2,5 C 0,0 km/h (0 Bft)
24.01.2016 04:00 1,4 C 18,1 C 1,5 C 2,5 C 2,5 C 1,1 C 88 % 79 % 0 % 1034,2 hPa 0,0 l/m 1,4 km/h (1 Bft) W-SW 247 0 min -0,4 C 2,5 C 1,9 km/h (1 Bft)
24.01.2016 04:05 1,5 C 18,1 C 1,5 C 2,5 C 2,5 C 1,0 C 88 % 78 % 0 % 1034,2 hPa 0,0 l/m 2,1 km/h (1 Bft) W-SW 247 0 min -0,3 C 2,5 C 3,7 km/h (1 Bft)
24.01.2016 04:10 1,4 C 18,1 C 1,5 C 2,6 C 2,6 C 1,2 C 88 % 78 % 0 % 1034,2 hPa 0,0 l/m 2,1 km/h (1 Bft) W-SW 247 0 min -0,4 C 2,6 C 4,3 km/h (1 Bft)
24.01.2016 04:15 1,5 C 18,1 C 1,5 C 2,6 C 2,6 C 1,1 C 88 % 78 % 0 % 1034,2 hPa 0,0 l/m 1,6 km/h (1 Bft) S-SW 202 0 min -0,3 C 2,6 C 1,9 km/h (1 Bft)
24.01.2016 04:20 1,4 C 18,1 C 1,6 C 2,6 C 2,6 C 1,2 C 88 % 78 % 0 % 1034,2 hPa 0,0 l/m 0,8 km/h (0 Bft) NW 315 0 min -0,4 C 2,6 C 0,0 km/h (0 Bft)
24.01.2016 04:25 1,5 C 18,1 C 1,6 C 2,6 C 2,6 C 1,1 C 88 % 78 % 0 % 1034,2 hPa 0,0 l/m 0,6 km/h (0 Bft) W-SW 247 0 min -0,3 C 2,6 C 0,0 km/h (0 Bft)
24.01.2016 04:30 1,5 C 18,1 C 1,6 C 2,6 C 2,6 C 1,1 C 88 % 78 % 0 % 1034,2 hPa 0,0 l/m 0,2 km/h (0 Bft) SW 225 0 min -0,3 C 2,6 C 1,8 km/h (1 Bft)
24.01.2016 04:35 1,5 C 18,1 C 1,6 C 2,6 C 2,6 C 1,1 C 88 % 78 % 0 % 1034,2 hPa 0,0 l/m 0,2 km/h (0 Bft) S-SW 202 0 min -0,3 C 2,6 C 0,0 km/h (0 Bft)
24.01.2016 04:40 1,3 C 18,1 C 1,5 C 2,5 C 2,5 C 1,2 C 88 % 78 % 0 % 1034,2 hPa 0,0 l/m 0,2 km/h (0 Bft) NO 45 0 min -0,5 C 2,5 C 0,0 km/h (0 Bft)
24.01.2016 04:45 1,3 C 18,1 C 1,5 C 2,5 C 2,5 C 1,2 C 88 % 79 % 0 % 1034,2 hPa 0,0 l/m 0,0 km/h (0 Bft) NO 45 0 min -0,5 C 2,5 C 0,0 km/h (0 Bft)
24.01.2016 04:50 1,2 C 18,1 C 1,3 C 2,4 C 2,4 C 1,2 C 88 % 79 % 0 % 1033,2 hPa 0,0 l/m 0,0 km/h (0 Bft) O-NO 67 0 min -0,6 C 2,4 C 0,0 km/h (0 Bft)
24.01.2016 04:55 1,2 C 18,1 C 1,3 C 2,4 C 2,4 C 1,2 C 88 % 79 % 0 % 1033,2 hPa 0,0 l/m 0,0 km/h (0 Bft) NO 45 0 min -0,6 C 2,4 C 0,0 km/h (0 Bft)
24.01.2016 05:00 1,2 C 18,1 C 1,2 C 2,4 C 2,4 C 1,2 C 88 % 79 % 0 % 1033,2 hPa 0,0 l/m 0,0 km/h (0 Bft) O 90 0 min -0,6 C 2,4 C 0,0 km/h (0 Bft)
24.01.2016 05:05 1,1 C 18,1 C 1,3 C 2,3 C 2,3 C 1,2 C 88 % 79 % 0 % 1033,2 hPa 0,0 l/m 0,0 km/h (0 Bft) O 90 0 min -0,7 C 2,3 C 0,0 km/h (0 Bft)
24.01.2016 05:10 1,1 C 18,1 C 1,2 C 2,3 C 2,3 C 1,2 C 88 % 79 % 0 % 1033,2 hPa 0,0 l/m 0,0 km/h (0 Bft) O-NO 67 0 min -0,7 C 2,3 C 0,0 km/h (0 Bft)
24.01.2016 05:15 1,1 C 18,1 C 1,2 C 2,3 C 2,3 C 1,2 C 88 % 79 % 0 % 1033,2 hPa 0,0 l/m 0,0 km/h (0 Bft) O-NO 67 0 min -0,7 C 2,3 C 0,0 km/h (0 Bft)
24.01.2016 05:20 1,1 C 18,1 C 1,3 C 2,3 C 2,3 C 1,2 C 88 % 78 % 0 % 1033,2 hPa 0,0 l/m 0,0 km/h (0 Bft) O-NO 67 0 min -0,7 C 2,3 C 0,0 km/h (0 Bft)
24.01.2016 05:25 1,1 C 18,1 C 1,1 C 2,2 C 2,2 C 1,1 C 88 % 79 % 0 % 1033,2 hPa 0,0 l/m 0,0 km/h (0 Bft) O 90 0 min -0,7 C 2,2 C 0,0 km/h (0 Bft)
24.01.2016 05:30 1,1 C 18,1 C 1,1 C 2,2 C 2,2 C 1,1 C 88 % 79 % 0 % 1032,9 hPa 0,0 l/m 0,2 km/h (0 Bft) NO 45 0 min -0,7 C 2,2 C 0,0 km/h (0 Bft)
24.01.2016 05:35 1,1 C 18,1 C 1,1 C 2,1 C 2,1 C 1,0 C 88 % 78 % 0 % 1032,9 hPa 0,0 l/m 0,2 km/h (0 Bft) NO 45 0 min -0,7 C 2,1 C 0,0 km/h (0 Bft)
24.01.2016 05:40 1,0 C 18,1 C 1,1 C 2,1 C 2,1 C 1,1 C 88 % 78 % 0 % 1032,9 hPa 0,0 l/m 0,0 km/h (0 Bft) NO 45 0 min -0,8 C 2,1 C 0,0 km/h (0 Bft)
24.01.2016 05:45 0,9 C 18,1 C 1,1 C 2,1 C 2,1 C 1,2 C 87 % 78 % 0 % 1032,9 hPa 0,0 l/m 0,0 km/h (0 Bft) N 360 0 min -1,0 C 2,1 C 0,0 km/h (0 Bft)
24.01.2016 05:50 0,9 C 18,1 C 1,2 C 2,1 C 2,1 C 1,2 C 87 % 78 % 0 % 1032,1 hPa 0,0 l/m 0,0 km/h (0 Bft) NO 45 0 min -1,0 C 2,1 C 0,0 km/h (0 Bft)
24.01.2016 05:55 1,0 C 18,1 C 1,2 C 2,1 C 2,1 C 1,1 C 88 % 78 % 0 % 1032,1 hPa 0,0 l/m 0,2 km/h (0 Bft) NO 45 0 min -0,8 C 2,1 C 0,0 km/h (0 Bft)
24.01.2016 06:00 0,9 C 18,1 C 1,2 C 2,1 C 2,1 C 1,2 C 88 % 78 % 0 % 1032,1 hPa 0,0 l/m 0,2 km/h (0 Bft) S-SW 202 0 min -0,9 C 2,1 C 0,0 km/h (0 Bft)
24.01.2016 06:05 0,9 C 18,1 C 1,2 C 2,2 C 2,2 C 1,3 C 88 % 78 % 0 % 1032,1 hPa 0,0 l/m 0,0 km/h (0 Bft) O 90 0 min -0,9 C 2,2 C 0,0 km/h (0 Bft)
24.01.2016 06:10 0,9 C 18,1 C 1,1 C 2,1 C 2,1 C 1,2 C 88 % 78 % 0 % 1032,1 hPa 0,0 l/m 0,0 km/h (0 Bft) O 90 0 min -0,9 C 2,1 C 0,0 km/h (0 Bft)
24.01.2016 06:15 0,9 C 18,1 C 1,1 C 2,0 C 2,0 C 1,1 C 88 % 78 % 0 % 1032,1 hPa 0,0 l/m 0,0 km/h (0 Bft) O-NO 67 0 min -0,9 C 2,0 C 0,0 km/h (0 Bft)
24.01.2016 06:20 0,8 C 18,1 C 1,0 C 1,9 C 1,9 C 1,1 C 87 % 78 % 0 % 1032,1 hPa 0,0 l/m 0,0 km/h (0 Bft) NW 315 0 min -1,1 C 1,9 C 0,0 km/h (0 Bft)
24.01.2016 06:25 0,9 C 18,1 C 0,9 C 1,8 C 1,8 C 0,9 C 88 % 78 % 0 % 1032,1 hPa 0,0 l/m 0,0 km/h (0 Bft) NW 315 0 min -0,9 C 1,8 C 0,0 km/h (0 Bft)
24.01.2016 06:30 0,8 C 18,1 C 0,9 C 1,8 C 1,8 C 1,0 C 88 % 78 % 0 % 1032,7 hPa 0,0 l/m 0,0 km/h (0 Bft) N 360 0 min -1,0 C 1,8 C 0,0 km/h (0 Bft)
24.01.2016 06:35 0,8 C 18,1 C 0,9 C 1,7 C 1,7 C 0,9 C 88 % 78 % 0 % 1032,7 hPa 0,0 l/m 0,0 km/h (0 Bft) O-SO 112 0 min -1,0 C 1,7 C 0,0 km/h (0 Bft)
24.01.2016 06:41 0,9 C 18,1 C 1,1 C 1,9 C 1,9 C 1,0 C 88 % 78 % 0 % 1032,7 hPa 0,0 l/m 0,2 km/h (0 Bft) N 0 0 min -0,9 C 1,9 C 0,0 km/h (0 Bft)
24.01.2016 06:50 0,9 C 18,1 C 1,1 C 1,8 C 1,8 C 0,9 C 88 % 78 % 0 % 1032,7 hPa 0,0 l/m 0,0 km/h (0 Bft) O-NO 67 0 min -0,9 C 1,8 C 0,0 km/h (0 Bft)
24.01.2016 06:55 0,9 C 18,1 C 1,1 C 1,9 C 1,9 C 1,0 C 88 % 78 % 0 % 1032,7 hPa 0,0 l/m 0,0 km/h (0 Bft) O-SO 112 0 min -0,9 C 1,9 C 0,0 km/h (0 Bft)
24.01.2016 07:00 0,9 C 18,1 C 1,1 C 1,8 C 1,8 C 0,9 C 88 % 78 % 0 % 1032,7 hPa 0,0 l/m 0,0 km/h (0 Bft) NO 45 0 min -0,9 C 1,8 C 0,0 km/h (0 Bft)
24.01.2016 07:05 0,8 C 18,1 C 1,1 C 1,7 C 1,7 C 0,9 C 88 % 78 % 0 % 1032,7 hPa 0,0 l/m 0,0 km/h (0 Bft) SW 225 0 min -1,0 C 1,7 C 0,0 km/h (0 Bft)
24.01.2016 07:10 0,8 C 18,1 C 1,1 C 1,7 C 1,7 C 0,9 C 88 % 77 % 0 % 1032,7 hPa 0,0 l/m 0,5 km/h (0 Bft) SW 225 0 min -1,0 C 1,7 C 0,0 km/h (0 Bft)
24.01.2016 07:15 0,9 C 18,1 C 1,1 C 1,7 C 1,7 C 0,8 C 88 % 77 % 0 % 1032,7 hPa 0,0 l/m 0,6 km/h (0 Bft) N-NO 22 0 min -0,9 C 1,7 C 0,0 km/h (0 Bft)
24.01.2016 07:20 0,8 C 18,0 C 1,1 C 1,6 C 1,6 C 0,8 C 88 % 77 % 0 % 1032,7 hPa 0,0 l/m 0,3 km/h (0 Bft) N-NO 22 0 min -1,0 C 1,6 C 0,0 km/h (0 Bft)
24.01.2016 07:25 0,8 C 18,0 C 1,1 C 1,6 C 1,6 C 0,8 C 88 % 77 % 0 % 1032,7 hPa 0,0 l/m 0,8 km/h (0 Bft) SW 225 0 min -1,0 C 1,6 C 5,5 km/h (1 Bft)
24.01.2016 07:30 1,0 C 18,0 C 1,2 C 1,8 C 1,8 C 0,8 C 88 % 77 % 0 % 1032,7 hPa 0,0 l/m 1,3 km/h (1 Bft) N-NW 337 0 min -0,8 C 1,8 C 0,0 km/h (0 Bft)
24.01.2016 07:35 1,0 C 17,9 C 1,3 C 1,8 C 1,8 C 0,8 C 88 % 77 % 0 % 1032,7 hPa 0,0 l/m 1,0 km/h (0 Bft) W-NW 292 0 min -0,8 C 1,8 C 0,0 km/h (0 Bft)
24.01.2016 07:40 0,9 C 17,9 C 1,3 C 1,8 C 1,8 C 0,9 C 88 % 77 % 0 % 1032,7 hPa 0,0 l/m 0,2 km/h (0 Bft) O 90 0 min -0,9 C 1,8 C 0,0 km/h (0 Bft)
24.01.2016 07:45 1,0 C 18,0 C 1,2 C 1,8 C 1,8 C 0,8 C 88 % 77 % 0 % 1032,7 hPa 0,0 l/m 0,2 km/h (0 Bft) O-NO 67 0 min -0,8 C 1,8 C 0,0 km/h (0 Bft)
24.01.2016 07:50 0,9 C 18,0 C 1,1 C 1,8 C 1,8 C 0,9 C 88 % 77 % 0 % 1032,6 hPa 0,0 l/m 0,2 km/h (0 Bft) S 180 0 min -0,9 C 1,8 C 0,0 km/h (0 Bft)
24.01.2016 07:55 0,8 C 18,0 C 1,2 C 1,8 C 1,8 C 1,0 C 88 % 77 % 0 % 1032,6 hPa 0,0 l/m 0,0 km/h (0 Bft) O-NO 67 0 min -1,0 C 1,8 C 0,0 km/h (0 Bft)
24.01.2016 08:00 0,8 C 18,0 C 1,1 C 1,7 C 1,7 C 0,9 C 88 % 77 % 0 % 1032,6 hPa 0,0 l/m 0,0 km/h (0 Bft) O-NO 67 0 min -1,0 C 1,7 C 0,0 km/h (0 Bft)
24.01.2016 08:05 0,8 C 18,0 C 1,1 C 1,7 C 1,7 C 0,9 C 88 % 77 % 0 % 1032,6 hPa 0,0 l/m 0,0 km/h (0 Bft) NO 45 0 min -1,0 C 1,7 C 0,0 km/h (0 Bft)
24.01.2016 08:10 0,7 C 18,0 C 1,1 C 1,5 C 1,5 C 0,8 C 88 % 77 % 21 % 1032,6 hPa 0,0 l/m 0,0 km/h (0 Bft) S-SO 157 5 min -1,1 C 1,5 C 0,0 km/h (0 Bft)
24.01.2016 08:15 0,6 C 18,0 C 0,9 C 1,5 C 1,5 C 0,9 C 88 % 77 % 24 % 1032,6 hPa 0,0 l/m 0,0 km/h (0 Bft) O-NO 67 5 min -1,2 C 1,5 C 0,0 km/h (0 Bft)
24.01.2016 08:20 0,7 C 18,0 C 1,1 C 1,6 C 1,6 C 0,9 C 88 % 77 % 24 % 1032,6 hPa 0,0 l/m 0,0 km/h (0 Bft) NO 45 5 min -1,1 C 1,6 C 0,0 km/h (0 Bft)
24.01.2016 08:25 0,7 C 18,0 C 1,0 C 1,7 C 1,7 C 1,0 C 88 % 77 % 26 % 1032,6 hPa 0,0 l/m 0,3 km/h (0 Bft) S-SO 157 5 min -1,1 C 1,7 C 2,3 km/h (1 Bft)
24.01.2016 08:30 0,9 C 17,9 C 1,2 C 1,8 C 1,8 C 0,9 C 88 % 77 % 24 % 1032,6 hPa 0,0 l/m 0,6 km/h (0 Bft) S 180 5 min -0,9 C 1,8 C 0,0 km/h (0 Bft)
24.01.2016 08:35 0,8 C 17,9 C 1,3 C 1,9 C 1,9 C 1,1 C 88 % 77 % 29 % 1032,6 hPa 0,0 l/m 0,6 km/h (0 Bft) S-SO 157 5 min -1,0 C 1,9 C 0,0 km/h (0 Bft)
24.01.2016 08:40 0,8 C 17,9 C 1,3 C 2,0 C 2,0 C 1,2 C 88 % 77 % 32 % 1032,6 hPa 0,0 l/m 1,0 km/h (0 Bft) O 90 5 min -1,0 C 2,0 C 1,9 km/h (1 Bft)
24.01.2016 08:45 1,0 C 17,8 C 1,5 C 2,2 C 2,2 C 1,2 C 88 % 77 % 32 % 1032,6 hPa 0,0 l/m 2,1 km/h (1 Bft) S-SO 157 5 min -0,8 C 2,2 C 7,1 km/h (2 Bft)
24.01.2016 08:50 1,1 C 17,8 C 1,5 C 2,3 C 2,3 C 1,2 C 88 % 77 % 32 % 1032,8 hPa 0,0 l/m 2,7 km/h (1 Bft) S 180 5 min -0,7 C 2,3 C 5,8 km/h (2 Bft)
24.01.2016 08:55 1,1 C 17,8 C 1,6 C 2,3 C 2,3 C 1,2 C 88 % 77 % 32 % 1032,8 hPa 0,0 l/m 2,9 km/h (1 Bft) S 180 5 min -0,7 C 2,3 C 4,5 km/h (1 Bft)
24.01.2016 09:00 1,2 C 17,8 C 1,8 C 1,3 C 1,3 C 0,1 C 88 % 76 % 3 % 1032,8 hPa 0,0 l/m 4,8 km/h (1 Bft) S 180 0 min -0,6 C -0,0 C 7,4 km/h (2 Bft)
24.01.2016 09:05 1,3 C 17,8 C 1,9 C 1,4 C 1,4 C 0,1 C 88 % 76 % 3 % 1032,8 hPa 0,0 l/m 5,0 km/h (1 Bft) S 180 0 min -0,5 C -0,0 C 9,7 km/h (2 Bft)
24.01.2016 09:10 1,3 C 17,8 C 1,9 C 2,2 C 2,2 C 0,9 C 88 % 76 % 24 % 1032,8 hPa 0,0 l/m 3,4 km/h (1 Bft) SW 225 0 min -0,5 C 2,2 C 3,1 km/h (1 Bft)
24.01.2016 09:15 1,3 C 17,8 C 1,9 C 2,6 C 2,6 C 1,3 C 87 % 76 % 34 % 1032,8 hPa 0,0 l/m 2,7 km/h (1 Bft) SW 225 0 min -0,6 C 2,6 C 2,4 km/h (1 Bft)
24.01.2016 09:20 1,3 C 17,8 C 1,9 C 2,6 C 2,6 C 1,3 C 87 % 76 % 34 % 1032,8 hPa 0,0 l/m 1,9 km/h (1 Bft) S-SO 157 0 min -0,6 C 2,6 C 3,5 km/h (1 Bft)
24.01.2016 09:25 1,3 C 17,8 C 1,9 C 2,6 C 2,6 C 1,3 C 87 % 76 % 34 % 1032,8 hPa 0,0 l/m 1,8 km/h (1 Bft) O-SO 112 0 min -0,6 C 2,6 C 1,8 km/h (1 Bft)
24.01.2016 09:30 1,5 C 17,8 C 2,0 C 2,8 C 2,8 C 1,3 C 87 % 76 % 34 % 1032,8 hPa 0,0 l/m 2,3 km/h (1 Bft) S 180 0 min -0,4 C 2,8 C 2,3 km/h (1 Bft)
24.01.2016 09:35 1,5 C 17,8 C 2,0 C 2,9 C 2,9 C 1,4 C 87 % 76 % 37 % 1032,8 hPa 0,0 l/m 2,4 km/h (1 Bft) O-NO 67 0 min -0,4 C 2,9 C 6,6 km/h (2 Bft)
24.01.2016 09:41 1,5 C 17,8 C 2,1 C 3,0 C 3,0 C 1,5 C 87 % 76 % 39 % 1032,8 hPa 0,0 l/m 1,8 km/h (1 Bft) N 0 0 min -0,4 C 3,0 C 3,2 km/h (1 Bft)
24.01.2016 09:50 1,6 C 17,8 C 2,2 C 3,3 C 3,3 C 1,7 C 87 % 76 % 45 % 1032,1 hPa 0,0 l/m 2,6 km/h (1 Bft) W 270 0 min -0,3 C 3,3 C 0,0 km/h (0 Bft)
24.01.2016 09:55 1,7 C 17,8 C 2,3 C 3,4 C 3,4 C 1,7 C 87 % 76 % 45 % 1032,1 hPa 0,0 l/m 2,4 km/h (1 Bft) S-SO 157 0 min -0,2 C 3,4 C 0,0 km/h (0 Bft)
24.01.2016 10:00 1,7 C 17,8 C 2,4 C 3,6 C 3,6 C 1,9 C 86 % 76 % 50 % 1032,1 hPa 0,0 l/m 1,1 km/h (1 Bft) O-SO 112 0 min -0,4 C 3,6 C 1,9 km/h (1 Bft)
24.01.2016 10:05 1,9 C 17,8 C 2,4 C 3,6 C 3,6 C 1,7 C 86 % 76 % 45 % 1032,1 hPa 0,0 l/m 1,3 km/h (1 Bft) S 180 0 min -0,2 C 3,6 C 3,4 km/h (1 Bft)
24.01.2016 10:10 1,8 C 17,8 C 2,4 C 3,7 C 3,7 C 1,9 C 86 % 76 % 50 % 1032,1 hPa 0,0 l/m 1,4 km/h (1 Bft) W 270 0 min -0,3 C 3,7 C 5,1 km/h (1 Bft)
24.01.2016 10:15 1,9 C 17,8 C 2,5 C 4,0 C 4,0 C 2,1 C 86 % 76 % 55 % 1032,1 hPa 0,0 l/m 2,1 km/h (1 Bft) SW 225 0 min -0,2 C 4,0 C 2,7 km/h (1 Bft)
24.01.2016 10:20 2,0 C 17,8 C 2,7 C 4,1 C 4,1 C 2,1 C 86 % 76 % 55 % 1032,1 hPa 0,0 l/m 2,9 km/h (1 Bft) SW 225 0 min -0,1 C 4,1 C 4,5 km/h (1 Bft)
24.01.2016 10:25 2,0 C 17,8 C 2,8 C 3,9 C 3,9 C 1,9 C 86 % 76 % 50 % 1032,1 hPa 0,0 l/m 3,4 km/h (1 Bft) SW 225 0 min -0,1 C 3,9 C 4,5 km/h (1 Bft)
24.01.2016 10:30 2,1 C 17,8 C 2,8 C 3,6 C 3,6 C 1,5 C 85 % 76 % 39 % 1032,1 hPa 0,0 l/m 4,5 km/h (1 Bft) SW 225 0 min -0,2 C 3,6 C 6,0 km/h (2 Bft)
24.01.2016 10:35 2,3 C 17,7 C 2,9 C 4,0 C 4,0 C 1,7 C 85 % 76 % 45 % 1032,1 hPa 0,0 l/m 3,7 km/h (1 Bft) S 180 0 min 0,0 C 4,0 C 13,4 km/h (3 Bft)
24.01.2016 10:40 2,3 C 17,7 C 3,0 C 4,6 C 4,6 C 2,3 C 85 % 76 % 61 % 1032,1 hPa 0,0 l/m 1,9 km/h (1 Bft) O 90 0 min 0,0 C 4,6 C 2,3 km/h (1 Bft)
24.01.2016 10:45 2,4 C 17,7 C 3,1 C 4,7 C 4,7 C 2,3 C 85 % 76 % 61 % 1032,1 hPa 0,0 l/m 1,9 km/h (1 Bft) S-SO 157 0 min 0,1 C 4,7 C 4,2 km/h (1 Bft)
24.01.2016 10:50 2,5 C 17,7 C 3,2 C 5,0 C 5,0 C 2,5 C 84 % 76 % 66 % 1032,1 hPa 0,0 l/m 2,3 km/h (1 Bft) O-SO 112 0 min 0,1 C 5,0 C 1,9 km/h (1 Bft)
24.01.2016 10:55 2,6 C 17,7 C 3,3 C 5,0 C 5,0 C 2,4 C 84 % 76 % 63 % 1032,1 hPa 0,0 l/m 2,7 km/h (1 Bft) W 270 0 min 0,2 C 5,0 C 4,8 km/h (1 Bft)
24.01.2016 11:00 2,7 C 17,7 C 3,5 C 5,2 C 5,2 C 2,5 C 84 % 76 % 66 % 1032,1 hPa 0,0 l/m 2,3 km/h (1 Bft) W 270 0 min 0,3 C 5,2 C 3,7 km/h (1 Bft)
24.01.2016 11:05 2,7 C 17,7 C 3,5 C 5,2 C 5,2 C 2,5 C 84 % 76 % 66 % 1032,1 hPa 0,0 l/m 2,3 km/h (1 Bft) W 270 0 min 0,3 C 5,2 C 1,8 km/h (1 Bft)
24.01.2016 11:10 2,9 C 17,7 C 3,5 C 5,3 C 5,3 C 2,4 C 84 % 76 % 63 % 1032,1 hPa 0,0 l/m 2,1 km/h (1 Bft) SW 225 0 min 0,5 C 5,3 C 2,1 km/h (1 Bft)
24.01.2016 11:15 2,9 C 17,7 C 3,7 C 5,4 C 5,4 C 2,5 C 83 % 76 % 66 % 1032,1 hPa 0,0 l/m 1,8 km/h (1 Bft) SO 135 0 min 0,3 C 5,4 C 3,1 km/h (1 Bft)
24.01.2016 11:20 3,1 C 17,7 C 3,7 C 5,6 C 5,6 C 2,5 C 83 % 76 % 66 % 1032,1 hPa 0,0 l/m 2,4 km/h (1 Bft) S-SO 157 0 min 0,5 C 5,6 C 4,5 km/h (1 Bft)
24.01.2016 11:25 3,1 C 17,7 C 3,7 C 5,7 C 5,7 C 2,6 C 83 % 77 % 68 % 1032,1 hPa 0,0 l/m 2,4 km/h (1 Bft) SO 135 0 min 0,5 C 5,7 C 5,3 km/h (1 Bft)
24.01.2016 11:30 3,2 C 17,7 C 3,9 C 5,9 C 5,9 C 2,7 C 83 % 77 % 71 % 1031,7 hPa 0,0 l/m 2,7 km/h (1 Bft) W-SW 247 0 min 0,6 C 5,9 C 0,0 km/h (0 Bft)
24.01.2016 11:35 3,3 C 17,8 C 3,8 C 6,0 C 6,0 C 2,7 C 83 % 77 % 71 % 1031,7 hPa 0,0 l/m 2,9 km/h (1 Bft) SW 225 0 min 0,7 C 6,0 C 3,9 km/h (1 Bft)
24.01.2016 11:40 3,5 C 17,8 C 3,9 C 6,0 C 6,0 C 2,5 C 82 % 78 % 66 % 1031,7 hPa 0,0 l/m 2,1 km/h (1 Bft) NW 315 0 min 0,7 C 6,0 C 0,0 km/h (0 Bft)
24.01.2016 11:45 3,5 C 17,7 C 3,7 C 5,9 C 5,9 C 2,4 C 82 % 79 % 63 % 1031,7 hPa 0,0 l/m 1,9 km/h (1 Bft) W 270 0 min 0,7 C 5,9 C 2,1 km/h (1 Bft)
24.01.2016 11:50 3,5 C 17,7 C 3,6 C 5,9 C 5,9 C 2,4 C 82 % 79 % 63 % 1032,0 hPa 0,0 l/m 1,6 km/h (1 Bft) O-SO 112 0 min 0,7 C 5,9 C 0,0 km/h (0 Bft)
24.01.2016 11:55 3,5 C 17,7 C 3,6 C 5,9 C 5,9 C 2,4 C 82 % 80 % 63 % 1032,0 hPa 0,0 l/m 1,0 km/h (0 Bft) W-SW 247 0 min 0,7 C 5,9 C 0,0 km/h (0 Bft)
24.01.2016 12:00 3,6 C 17,7 C 3,6 C 5,8 C 5,8 C 2,2 C 82 % 81 % 58 % 1032,0 hPa 0,0 l/m 1,4 km/h (1 Bft) W-SW 247 0 min 0,8 C 5,8 C 3,7 km/h (1 Bft)
24.01.2016 12:05 3,6 C 17,7 C 3,7 C 5,8 C 5,8 C 2,2 C 82 % 81 % 58 % 1032,0 hPa 0,0 l/m 1,6 km/h (1 Bft) SW 225 0 min 0,8 C 5,8 C 0,0 km/h (0 Bft)
24.01.2016 12:10 3,7 C 17,7 C 3,9 C 6,0 C 6,0 C 2,3 C 82 % 81 % 61 % 1031,7 hPa 0,0 l/m 1,8 km/h (1 Bft) O-NO 67 0 min 0,9 C 6,0 C 4,3 km/h (1 Bft)
24.01.2016 12:15 3,9 C 17,7 C 3,9 C 6,0 C 6,0 C 2,1 C 82 % 82 % 55 % 1031,7 hPa 0,0 l/m 1,9 km/h (1 Bft) S-SO 157 0 min 1,1 C 6,0 C 3,5 km/h (1 Bft)
24.01.2016 12:20 3,9 C 17,7 C 4,1 C 6,0 C 6,0 C 2,1 C 82 % 83 % 55 % 1031,7 hPa 0,0 l/m 1,9 km/h (1 Bft) NW 315 0 min 1,1 C 6,0 C 0,0 km/h (0 Bft)
24.01.2016 12:25 4,0 C 17,7 C 4,0 C 6,1 C 6,1 C 2,1 C 81 % 83 % 55 % 1031,7 hPa 0,0 l/m 1,8 km/h (1 Bft) W-NW 292 0 min 1,0 C 6,1 C 1,8 km/h (1 Bft)
24.01.2016 12:30 4,0 C 17,6 C 4,3 C 6,3 C 6,3 C 2,3 C 81 % 83 % 61 % 1031,7 hPa 0,0 l/m 1,8 km/h (1 Bft) O-SO 112 0 min 1,0 C 6,3 C 2,3 km/h (1 Bft)
24.01.2016 12:35 4,1 C 17,6 C 4,3 C 6,5 C 6,5 C 2,4 C 81 % 83 % 63 % 1031,7 hPa 0,0 l/m 1,3 km/h (1 Bft) S-SW 202 0 min 1,1 C 6,5 C 0,0 km/h (0 Bft)
24.01.2016 12:41 4,4 C 17,6 C 4,3 C 6,7 C 6,7 C 2,3 C 80 % 84 % 61 % 1031,7 hPa 0,0 l/m 2,3 km/h (1 Bft) N 0 0 min 1,3 C 6,7 C 0,0 km/h (0 Bft)
24.01.2016 12:50 4,4 C 17,6 C 4,5 C 6,8 C 6,8 C 2,4 C 80 % 85 % 63 % 1031,7 hPa 0,0 l/m 2,3 km/h (1 Bft) S 180 0 min 1,3 C 6,8 C 3,9 km/h (1 Bft)
24.01.2016 12:55 4,5 C 17,6 C 4,6 C 7,0 C 7,0 C 2,5 C 80 % 86 % 66 % 1031,7 hPa 0,0 l/m 2,3 km/h (1 Bft) O-SO 112 0 min 1,4 C 7,0 C 0,0 km/h (0 Bft)
24.01.2016 13:00 4,7 C 17,6 C 4,7 C 7,0 C 7,0 C 2,3 C 80 % 86 % 61 % 1031,7 hPa 0,0 l/m 1,4 km/h (1 Bft) S-SO 157 0 min 1,6 C 7,0 C 6,0 km/h (2 Bft)
24.01.2016 13:05 4,8 C 17,6 C 4,6 C 7,0 C 7,0 C 2,2 C 80 % 87 % 58 % 1031,7 hPa 0,0 l/m 1,3 km/h (1 Bft) N-NO 22 0 min 1,6 C 7,0 C 1,8 km/h (1 Bft)
24.01.2016 13:10 4,8 C 17,6 C 4,4 C 7,0 C 7,0 C 2,2 C 80 % 87 % 58 % 1031,7 hPa 0,0 l/m 1,0 km/h (0 Bft) S-SW 202 0 min 1,6 C 7,0 C 0,0 km/h (0 Bft)
24.01.2016 13:15 4,9 C 17,6 C 4,4 C 6,9 C 6,9 C 2,0 C 80 % 88 % 53 % 1031,7 hPa 0,0 l/m 0,6 km/h (0 Bft) O-NO 67 0 min 1,7 C 6,9 C 0,0 km/h (0 Bft)
24.01.2016 13:20 4,9 C 17,6 C 4,5 C 7,0 C 7,0 C 2,1 C 80 % 88 % 55 % 1031,7 hPa 0,0 l/m 0,6 km/h (0 Bft) W-SW 247 0 min 1,7 C 7,0 C 2,9 km/h (1 Bft)
24.01.2016 13:25 4,9 C 17,6 C 4,6 C 7,1 C 7,1 C 2,2 C 80 % 88 % 58 % 1031,7 hPa 0,0 l/m 0,5 km/h (0 Bft) SW 225 0 min 1,7 C 7,1 C 0,0 km/h (0 Bft)
24.01.2016 13:30 5,1 C 17,6 C 4,7 C 7,3 C 7,3 C 2,2 C 80 % 88 % 58 % 1031,7 hPa 0,0 l/m 0,5 km/h (0 Bft) S-SO 157 0 min 1,9 C 7,3 C 0,0 km/h (0 Bft)
24.01.2016 13:35 5,1 C 17,6 C 4,7 C 7,3 C 7,3 C 2,2 C 80 % 88 % 58 % 1031,7 hPa 0,0 l/m 0,5 km/h (0 Bft) W-SW 247 0 min 1,9 C 7,3 C 3,2 km/h (1 Bft)
24.01.2016 13:40 5,1 C 17,6 C 4,8 C 7,3 C 7,3 C 2,2 C 79 % 88 % 58 % 1031,7 hPa 0,0 l/m 1,0 km/h (0 Bft) N-NW 337 0 min 1,8 C 7,3 C 1,9 km/h (1 Bft)
24.01.2016 13:45 5,1 C 17,6 C 4,8 C 7,3 C 7,3 C 2,2 C 79 % 88 % 58 % 1031,7 hPa 0,0 l/m 1,8 km/h (1 Bft) W-SW 247 0 min 1,8 C 7,3 C 2,9 km/h (1 Bft)
24.01.2016 13:50 5,1 C 17,6 C 4,7 C 7,2 C 7,2 C 2,1 C 79 % 88 % 55 % 1031,7 hPa 0,0 l/m 1,1 km/h (1 Bft) N-NW 337 0 min 1,8 C 7,2 C 0,0 km/h (0 Bft)
24.01.2016 13:55 5,2 C 17,6 C 4,7 C 7,2 C 7,2 C 2,0 C 79 % 89 % 53 % 1031,7 hPa 0,0 l/m 1,0 km/h (0 Bft) SO 135 0 min 1,9 C 7,2 C 0,0 km/h (0 Bft)
24.01.2016 14:00 5,2 C 17,6 C 4,9 C 7,2 C 7,2 C 2,0 C 79 % 89 % 53 % 1031,7 hPa 0,0 l/m 0,8 km/h (0 Bft) S-SW 202 0 min 1,9 C 7,2 C 1,8 km/h (1 Bft)
24.01.2016 14:05 5,3 C 17,6 C 4,8 C 7,4 C 7,4 C 2,1 C 79 % 89 % 55 % 1031,7 hPa 0,0 l/m 0,5 km/h (0 Bft) S 180 0 min 2,0 C 7,4 C 0,0 km/h (0 Bft)
24.01.2016 14:10 5,5 C 17,6 C 4,9 C 7,6 C 7,6 C 2,1 C 79 % 89 % 55 % 1031,7 hPa 0,0 l/m 0,5 km/h (0 Bft) W 270 0 min 2,2 C 7,6 C 0,0 km/h (0 Bft)
24.01.2016 14:15 5,4 C 17,6 C 4,9 C 7,8 C 7,8 C 2,4 C 78 % 89 % 63 % 1031,7 hPa 0,0 l/m 0,8 km/h (0 Bft) S 180 0 min 1,9 C 7,8 C 0,0 km/h (0 Bft)
24.01.2016 14:20 5,5 C 17,6 C 4,8 C 7,7 C 7,7 C 2,2 C 78 % 89 % 58 % 1031,7 hPa 0,0 l/m 1,0 km/h (0 Bft) SW 225 0 min 2,0 C 7,7 C 2,3 km/h (1 Bft)
24.01.2016 14:25 5,5 C 17,6 C 4,9 C 7,5 C 7,5 C 2,0 C 78 % 89 % 53 % 1031,7 hPa 0,0 l/m 1,3 km/h (1 Bft) W 270 0 min 2,0 C 7,5 C 0,0 km/h (0 Bft)
24.01.2016 14:30 5,4 C 17,6 C 5,1 C 7,5 C 7,5 C 2,1 C 78 % 89 % 55 % 1031,7 hPa 0,0 l/m 0,8 km/h (0 Bft) NW 315 0 min 1,9 C 7,5 C 0,0 km/h (0 Bft)
24.01.2016 14:35 5,5 C 17,6 C 5,1 C 7,6 C 7,6 C 2,1 C 79 % 89 % 55 % 1031,7 hPa 0,0 l/m 0,2 km/h (0 Bft) NW 315 0 min 2,2 C 7,6 C 0,0 km/h (0 Bft)
24.01.2016 14:40 5,6 C 17,6 C 5,0 C 7,6 C 7,6 C 2,0 C 78 % 89 % 53 % 1031,7 hPa 0,0 l/m 0,3 km/h (0 Bft) S-SO 157 0 min 2,1 C 7,6 C 1,6 km/h (1 Bft)
24.01.2016 14:45 5,6 C 17,6 C 5,1 C 7,5 C 7,5 C 1,9 C 78 % 90 % 50 % 1031,7 hPa 0,0 l/m 0,8 km/h (0 Bft) N-NW 337 0 min 2,1 C 7,5 C 1,8 km/h (1 Bft)
24.01.2016 14:50 5,5 C 17,6 C 5,1 C 7,3 C 7,3 C 1,8 C 78 % 90 % 47 % 1031,7 hPa 0,0 l/m 0,8 km/h (0 Bft) S 180 0 min 2,0 C 7,3 C 0,0 km/h (0 Bft)
24.01.2016 14:55 5,4 C 17,6 C 4,8 C 7,1 C 7,1 C 1,7 C 78 % 90 % 45 % 1031,7 hPa 0,0 l/m 0,8 km/h (0 Bft) O-SO 112 0 min 1,9 C 7,1 C 0,0 km/h (0 Bft)
24.01.2016 15:00 5,5 C 17,6 C 4,8 C 6,9 C 6,9 C 1,4 C 78 % 90 % 37 % 1031,7 hPa 0,0 l/m 1,4 km/h (1 Bft) S 180 0 min 2,0 C 6,9 C 4,5 km/h (1 Bft)
24.01.2016 15:05 5,5 C 17,6 C 4,9 C 6,8 C 6,8 C 1,3 C 78 % 90 % 34 % 1031,7 hPa 0,0 l/m 2,6 km/h (1 Bft) S 180 0 min 2,0 C 6,8 C 2,3 km/h (1 Bft)
24.01.2016 15:10 5,5 C 17,6 C 4,8 C 6,3 C 6,3 C 0,8 C 78 % 90 % 21 % 1031,7 hPa 0,0 l/m 4,0 km/h (1 Bft) SW 225 0 min 2,0 C 6,3 C 2,6 km/h (1 Bft)
24.01.2016 15:15 5,5 C 17,5 C 4,9 C 6,4 C 6,4 C 0,9 C 78 % 90 % 24 % 1031,7 hPa 0,0 l/m 3,5 km/h (1 Bft) S-SO 157 0 min 2,0 C 6,4 C 6,3 km/h (2 Bft)
24.01.2016 15:20 5,5 C 17,5 C 4,8 C 6,4 C 6,4 C 0,9 C 78 % 90 % 24 % 1031,7 hPa 0,0 l/m 3,5 km/h (1 Bft) SO 135 0 min 2,0 C 6,4 C 9,0 km/h (2 Bft)
24.01.2016 15:25 5,5 C 17,5 C 4,8 C 5,6 C 5,6 C 0,1 C 77 % 90 % 3 % 1031,7 hPa 0,0 l/m 5,3 km/h (1 Bft) S-SW 202 0 min 1,8 C 4,7 C 6,9 km/h (2 Bft)
24.01.2016 15:30 5,5 C 17,5 C 4,7 C 5,5 C 5,4 C 0,0 C 78 % 90 % 0 % 1031,7 hPa 0,0 l/m 5,8 km/h (2 Bft) S-SO 157 0 min 2,0 C 4,2 C 3,5 km/h (1 Bft)
24.01.2016 15:35 5,4 C 17,5 C 4,7 C 5,6 C 5,6 C 0,2 C 78 % 90 % 5 % 1031,7 hPa 0,0 l/m 5,1 km/h (1 Bft) S-SO 157 0 min 1,9 C 4,7 C 6,6 km/h (2 Bft)
24.01.2016 15:41 5,3 C 17,5 C 4,5 C 6,1 C 6,1 C 0,8 C 77 % 90 % 21 % 1031,7 hPa 0,0 l/m 3,5 km/h (1 Bft) N 0 0 min 1,6 C 6,1 C 1,8 km/h (1 Bft)
24.01.2016 15:50 5,3 C 17,5 C 4,4 C 5,6 C 5,6 C 0,3 C 77 % 90 % 8 % 1031,7 hPa 0,0 l/m 4,0 km/h (1 Bft) W-SW 247 0 min 1,6 C 5,6 C 6,1 km/h (2 Bft)
24.01.2016 15:55 5,2 C 17,5 C 4,4 C 5,2 C 5,1 C 0,0 C 77 % 90 % 0 % 1031,7 hPa 0,0 l/m 5,1 km/h (1 Bft) S-SO 157 0 min 1,5 C 4,2 C 6,3 km/h (2 Bft)
24.01.2016 16:00 5,1 C 17,5 C 4,5 C 5,1 C 5,0 C 0,0 C 77 % 90 % 0 % 1031,7 hPa 0,0 l/m 4,8 km/h (1 Bft) S-SW 202 0 min 1,4 C 4,2 C 3,1 km/h (1 Bft)
24.01.2016 16:05 5,1 C 17,5 C 4,3 C 5,6 C 5,6 C 0,5 C 78 % 90 % 13 % 1031,7 hPa 0,0 l/m 3,5 km/h (1 Bft) SW 225 0 min 1,6 C 5,6 C 3,2 km/h (1 Bft)
24.01.2016 16:10 4,9 C 17,5 C 4,3 C 5,4 C 5,4 C 0,5 C 78 % 90 % 13 % 1031,7 hPa 0,0 l/m 3,2 km/h (1 Bft) S-SW 202 0 min 1,4 C 5,4 C 7,7 km/h (2 Bft)
24.01.2016 16:15 4,9 C 17,5 C 4,1 C 5,1 C 5,1 C 0,2 C 78 % 90 % 5 % 1031,7 hPa 0,0 l/m 4,0 km/h (1 Bft) S 180 0 min 1,4 C 5,1 C 8,4 km/h (2 Bft)
24.01.2016 16:20 4,8 C 17,5 C 4,1 C 4,9 C 4,9 C 0,1 C 78 % 90 % 3 % 1031,7 hPa 0,0 l/m 4,3 km/h (1 Bft) O 90 0 min 1,3 C 4,9 C 2,3 km/h (1 Bft)
24.01.2016 16:25 4,8 C 17,5 C 4,0 C 5,2 C 5,2 C 0,4 C 78 % 90 % 11 % 1031,7 hPa 0,0 l/m 3,4 km/h (1 Bft) S 180 5 min 1,3 C 5,2 C 4,8 km/h (1 Bft)
24.01.2016 16:30 4,8 C 17,5 C 4,0 C 5,2 C 5,2 C 0,4 C 78 % 90 % 11 % 1031,7 hPa 0,0 l/m 2,4 km/h (1 Bft) W-SW 247 5 min 1,3 C 5,2 C 4,2 km/h (1 Bft)
24.01.2016 16:35 4,8 C 17,5 C 3,9 C 5,2 C 5,2 C 0,4 C 78 % 90 % 0 % 1031,7 hPa 0,0 l/m 2,9 km/h (1 Bft) S 180 0 min 1,3 C 5,2 C 2,1 km/h (1 Bft)
24.01.2016 16:40 4,7 C 17,5 C 3,9 C 5,1 C 5,1 C 0,4 C 78 % 90 % 0 % 1031,7 hPa 0,0 l/m 2,7 km/h (1 Bft) W-SW 247 0 min 1,2 C 5,1 C 3,9 km/h (1 Bft)
24.01.2016 16:45 4,5 C 17,5 C 3,7 C 5,0 C 5,0 C 0,5 C 78 % 90 % 0 % 1031,7 hPa 0,0 l/m 1,9 km/h (1 Bft) S-SO 157 0 min 1,0 C 5,0 C 0,0 km/h (0 Bft)
24.01.2016 16:50 4,4 C 17,5 C 3,6 C 4,7 C 4,7 C 0,3 C 78 % 90 % 0 % 1031,7 hPa 0,0 l/m 1,9 km/h (1 Bft) W-SW 247 0 min 0,9 C 4,7 C 2,4 km/h (1 Bft)
24.01.2016 16:55 4,3 C 17,6 C 3,6 C 4,6 C 4,6 C 0,3 C 78 % 90 % 0 % 1031,7 hPa 0,0 l/m 1,1 km/h (1 Bft) SW 225 0 min 0,8 C 4,6 C 1,6 km/h (1 Bft)
24.01.2016 17:00 4,3 C 17,6 C 3,5 C 4,4 C 4,4 C 0,1 C 79 % 90 % 0 % 1031,7 hPa 0,0 l/m 0,5 km/h (0 Bft) SO 135 0 min 1,0 C 4,4 C 1,6 km/h (1 Bft)
24.01.2016 17:05 4,2 C 17,6 C 3,6 C 4,4 C 4,4 C 0,2 C 79 % 90 % 0 % 1031,7 hPa 0,0 l/m 1,3 km/h (1 Bft) S 180 0 min 0,9 C 4,4 C 8,5 km/h (2 Bft)
24.01.2016 17:10 4,2 C 17,6 C 3,6 C 4,6 C 4,6 C 0,4 C 79 % 90 % 0 % 1031,7 hPa 0,0 l/m 3,1 km/h (1 Bft) S-SO 157 0 min 0,9 C 4,6 C 6,1 km/h (2 Bft)
24.01.2016 17:15 4,3 C 17,6 C 3,6 C 4,3 C 4,3 C 0,0 C 79 % 90 % 0 % 1031,7 hPa 0,0 l/m 3,7 km/h (1 Bft) SW 225 0 min 1,0 C 4,3 C 3,9 km/h (1 Bft)
24.01.2016 17:20 4,4 C 17,6 C 3,6 C 4,4 C 4,3 C 0,0 C 79 % 90 % 0 % 1031,7 hPa 0,0 l/m 3,7 km/h (1 Bft) W-NW 292 0 min 1,1 C 4,3 C 2,9 km/h (1 Bft)
24.01.2016 17:25 4,4 C 17,6 C 3,6 C 4,6 C 4,6 C 0,2 C 79 % 90 % 0 % 1031,7 hPa 0,0 l/m 3,1 km/h (1 Bft) W-SW 247 0 min 1,1 C 4,6 C 4,5 km/h (1 Bft)
24.01.2016 17:30 4,4 C 17,6 C 3,7 C 4,6 C 4,6 C 0,2 C 78 % 90 % 0 % 1029,6 hPa 0,0 l/m 2,7 km/h (1 Bft) SO 135 0 min 0,9 C 4,6 C 4,0 km/h (1 Bft)
24.01.2016 17:35 4,4 C 17,6 C 3,6 C 4,6 C 4,6 C 0,2 C 78 % 90 % 0 % 1029,6 hPa 0,0 l/m 2,6 km/h (1 Bft) S 180 0 min 0,9 C 4,6 C 3,7 km/h (1 Bft)
24.01.2016 17:40 4,4 C 17,6 C 3,7 C 4,7 C 4,7 C 0,3 C 78 % 90 % 0 % 1029,6 hPa 0,0 l/m 3,1 km/h (1 Bft) S-SW 202 0 min 0,9 C 4,7 C 8,9 km/h (2 Bft)
24.01.2016 17:45 4,5 C 17,5 C 3,9 C 4,3 C 4,0 C 0,0 C 78 % 90 % 0 % 1029,6 hPa 0,0 l/m 4,5 km/h (1 Bft) S-SO 157 0 min 1,0 C 4,0 C 7,7 km/h (2 Bft)
24.01.2016 17:50 4,5 C 17,6 C 3,9 C 4,3 C 3,8 C 0,0 C 78 % 90 % 0 % 1029,6 hPa 0,0 l/m 5,6 km/h (1 Bft) SO 135 0 min 1,0 C 2,5 C 3,7 km/h (1 Bft)
24.01.2016 17:55 4,5 C 17,6 C 3,9 C 4,4 C 4,3 C 0,0 C 78 % 90 % 0 % 1029,6 hPa 0,0 l/m 4,8 km/h (1 Bft) SW 225 0 min 1,0 C 3,4 C 5,6 km/h (1 Bft)
24.01.2016 18:00 4,5 C 17,6 C 3,9 C 4,9 C 4,9 C 0,4 C 78 % 90 % 0 % 1029,6 hPa 0,0 l/m 3,4 km/h (1 Bft) W-SW 247 0 min 1,0 C 4,9 C 4,8 km/h (1 Bft)
24.01.2016 18:05 4,4 C 17,6 C 3,9 C 5,0 C 5,0 C 0,6 C 78 % 90 % 0 % 1029,6 hPa 0,0 l/m 2,9 km/h (1 Bft) NW 315 0 min 0,9 C 5,0 C 4,0 km/h (1 Bft)
24.01.2016 18:10 4,3 C 17,6 C 3,9 C 5,0 C 5,0 C 0,7 C 78 % 90 % 0 % 1029,4 hPa 0,0 l/m 2,7 km/h (1 Bft) N-NW 337 0 min 0,8 C 5,0 C 3,7 km/h (1 Bft)
24.01.2016 18:15 4,3 C 17,6 C 3,8 C 4,9 C 4,9 C 0,6 C 79 % 90 % 0 % 1029,4 hPa 0,0 l/m 3,2 km/h (1 Bft) O-SO 112 0 min 1,0 C 4,9 C 6,3 km/h (2 Bft)
24.01.2016 18:20 4,3 C 17,6 C 3,7 C 4,8 C 4,8 C 0,5 C 79 % 90 % 0 % 1029,4 hPa 0,0 l/m 3,4 km/h (1 Bft) W-SW 247 0 min 1,0 C 4,8 C 6,9 km/h (2 Bft)
24.01.2016 18:25 4,2 C 17,6 C 3,9 C 5,0 C 5,0 C 0,8 C 79 % 90 % 0 % 1029,4 hPa 0,0 l/m 2,7 km/h (1 Bft) N 360 0 min 0,9 C 5,0 C 1,9 km/h (1 Bft)
24.01.2016 18:30 4,3 C 17,6 C 3,8 C 5,0 C 5,0 C 0,7 C 79 % 90 % 0 % 1029,4 hPa 0,0 l/m 2,1 km/h (1 Bft) SO 135 0 min 1,0 C 5,0 C 5,0 km/h (1 Bft)
24.01.2016 18:35 4,3 C 17,6 C 3,8 C 5,0 C 5,0 C 0,7 C 79 % 90 % 0 % 1029,4 hPa 0,0 l/m 1,8 km/h (1 Bft) S-SO 157 0 min 1,0 C 5,0 C 1,9 km/h (1 Bft)
24.01.2016 18:41 4,1 C 17,6 C 3,7 C 4,4 C 4,4 C 0,3 C 80 % 90 % 0 % 1029,4 hPa 0,0 l/m 1,6 km/h (1 Bft) N 0 0 min 1,0 C 4,4 C 4,5 km/h (1 Bft)
24.01.2016 18:50 4,0 C 17,6 C 3,6 C 3,9 C 3,8 C 0,0 C 80 % 90 % 0 % 1029,4 hPa 0,0 l/m 4,0 km/h (1 Bft) W-SW 247 0 min 0,9 C 3,8 C 4,8 km/h (1 Bft)
24.01.2016 18:55 4,0 C 17,6 C 3,6 C 4,1 C 4,1 C 0,1 C 80 % 90 % 0 % 1029,4 hPa 0,0 l/m 3,5 km/h (1 Bft) S-SO 157 0 min 0,9 C 4,1 C 1,9 km/h (1 Bft)
24.01.2016 19:00 4,0 C 17,6 C 3,6 C 4,2 C 4,2 C 0,2 C 80 % 90 % 0 % 1029,4 hPa 0,0 l/m 1,8 km/h (1 Bft) S-SW 202 0 min 0,9 C 4,2 C 0,0 km/h (0 Bft)
24.01.2016 19:05 3,9 C 17,6 C 3,6 C 4,1 C 4,1 C 0,2 C 80 % 90 % 0 % 1029,4 hPa 0,0 l/m 0,5 km/h (0 Bft) W 270 0 min 0,8 C 4,1 C 0,0 km/h (0 Bft)
24.01.2016 19:10 3,9 C 17,6 C 3,5 C 4,1 C 4,1 C 0,2 C 80 % 90 % 0 % 1029,7 hPa 0,0 l/m 0,5 km/h (0 Bft) W-SW 247 0 min 0,8 C 4,1 C 0,0 km/h (0 Bft)
24.01.2016 19:15 3,7 C 17,6 C 3,5 C 4,1 C 4,1 C 0,4 C 80 % 90 % 0 % 1029,7 hPa 0,0 l/m 1,1 km/h (1 Bft) SW 225 0 min 0,6 C 4,1 C 5,3 km/h (1 Bft)
24.01.2016 19:20 3,6 C 17,6 C 3,4 C 4,2 C 4,2 C 0,6 C 81 % 90 % 0 % 1029,7 hPa 0,0 l/m 1,9 km/h (1 Bft) W 270 0 min 0,7 C 4,2 C 0,0 km/h (0 Bft)
24.01.2016 19:25 3,6 C 17,6 C 3,4 C 4,3 C 4,3 C 0,7 C 81 % 90 % 0 % 1029,7 hPa 0,0 l/m 1,9 km/h (1 Bft) N-NW 337 0 min 0,7 C 4,3 C 2,3 km/h (1 Bft)
24.01.2016 19:30 3,6 C 17,5 C 3,5 C 4,4 C 4,4 C 0,8 C 81 % 90 % 0 % 1029,7 hPa 0,0 l/m 1,6 km/h (1 Bft) S-SW 202 0 min 0,7 C 4,4 C 5,0 km/h (1 Bft)
24.01.2016 19:35 3,6 C 17,5 C 3,6 C 4,5 C 4,5 C 0,9 C 81 % 90 % 0 % 1029,7 hPa 0,0 l/m 2,9 km/h (1 Bft) NW 315 0 min 0,7 C 4,5 C 11,6 km/h (2 Bft)
24.01.2016 19:40 3,8 C 17,5 C 3,6 C 4,1 C 4,1 C 0,3 C 81 % 90 % 0 % 1029,7 hPa 0,0 l/m 4,3 km/h (1 Bft) W-SW 247 0 min 0,8 C 4,1 C 6,4 km/h (2 Bft)
24.01.2016 19:45 3,9 C 17,5 C 3,6 C 3,9 C 3,8 C 0,0 C 81 % 90 % 0 % 1029,7 hPa 0,0 l/m 5,0 km/h (1 Bft) S-SW 202 0 min 0,9 C 2,7 C 10,5 km/h (2 Bft)
24.01.2016 19:50 3,9 C 17,5 C 3,7 C 4,3 C 4,3 C 0,4 C 81 % 90 % 0 % 1029,6 hPa 0,0 l/m 4,3 km/h (1 Bft) S 180 0 min 0,9 C 4,3 C 5,3 km/h (1 Bft)
24.01.2016 19:55 3,9 C 17,5 C 3,7 C 4,4 C 4,4 C 0,5 C 81 % 90 % 0 % 1029,6 hPa 0,0 l/m 4,2 km/h (1 Bft) SW 225 0 min 0,9 C 4,4 C 4,5 km/h (1 Bft)
24.01.2016 20:00 3,9 C 17,5 C 3,6 C 4,1 C 4,1 C 0,2 C 81 % 90 % 0 % 1029,6 hPa 0,0 l/m 4,3 km/h (1 Bft) W 270 0 min 0,9 C 4,1 C 6,3 km/h (2 Bft)
24.01.2016 20:05 3,9 C 17,5 C 3,7 C 3,9 C 3,9 C 0,0 C 81 % 90 % 0 % 1029,6 hPa 0,0 l/m 4,8 km/h (1 Bft) W-SW 247 0 min 0,9 C 2,9 C 7,9 km/h (2 Bft)
24.01.2016 20:10 3,9 C 17,5 C 3,7 C 3,9 C 3,9 C 0,0 C 81 % 90 % 0 % 1029,6 hPa 0,0 l/m 5,5 km/h (1 Bft) SW 225 0 min 0,9 C 2,6 C 3,7 km/h (1 Bft)
24.01.2016 20:15 3,9 C 17,5 C 3,7 C 3,9 C 3,8 C 0,0 C 80 % 90 % 0 % 1029,6 hPa 0,0 l/m 5,1 km/h (1 Bft) W 270 0 min 0,8 C 2,7 C 3,5 km/h (1 Bft)
24.01.2016 20:20 3,9 C 17,5 C 3,6 C 4,3 C 4,3 C 0,4 C 80 % 90 % 0 % 1029,6 hPa 0,0 l/m 3,7 km/h (1 Bft) W 270 0 min 0,8 C 4,3 C 2,9 km/h (1 Bft)
24.01.2016 20:25 3,8 C 17,5 C 3,5 C 4,7 C 4,7 C 0,9 C 81 % 90 % 0 % 1029,6 hPa 0,0 l/m 3,1 km/h (1 Bft) NW 315 0 min 0,8 C 4,7 C 2,3 km/h (1 Bft)
24.01.2016 20:30 3,6 C 17,5 C 3,7 C 4,6 C 4,6 C 1,0 C 81 % 90 % 0 % 1029,6 hPa 0,0 l/m 2,9 km/h (1 Bft) N 360 0 min 0,7 C 4,6 C 2,6 km/h (1 Bft)
24.01.2016 20:35 3,6 C 17,5 C 3,6 C 4,3 C 4,3 C 0,7 C 81 % 90 % 0 % 1029,6 hPa 0,0 l/m 3,5 km/h (1 Bft) S-SO 157 0 min 0,7 C 4,3 C 7,1 km/h (2 Bft)
24.01.2016 20:40 3,7 C 17,5 C 3,6 C 4,2 C 4,2 C 0,5 C 81 % 90 % 0 % 1029,6 hPa 0,0 l/m 3,9 km/h (1 Bft) SW 225 0 min 0,7 C 4,2 C 3,1 km/h (1 Bft)
24.01.2016 20:45 3,6 C 17,5 C 3,6 C 4,2 C 4,2 C 0,6 C 81 % 90 % 0 % 1029,6 hPa 0,0 l/m 3,9 km/h (1 Bft) N-NO 22 0 min 0,7 C 4,2 C 5,1 km/h (1 Bft)
24.01.2016 20:50 3,5 C 17,6 C 3,7 C 4,0 C 4,0 C 0,5 C 82 % 90 % 0 % 1029,6 hPa 0,0 l/m 3,9 km/h (1 Bft) N-NW 337 0 min 0,7 C 4,0 C 5,0 km/h (1 Bft)
24.01.2016 20:55 3,5 C 17,6 C 3,6 C 3,9 C 3,9 C 0,4 C 82 % 90 % 0 % 1029,6 hPa 0,0 l/m 3,9 km/h (1 Bft) W 270 0 min 0,7 C 3,9 C 6,0 km/h (2 Bft)
24.01.2016 21:00 3,2 C 17,6 C 3,6 C 4,0 C 4,0 C 0,8 C 82 % 90 % 0 % 1029,6 hPa 0,0 l/m 3,4 km/h (1 Bft) S-SW 202 0 min 0,4 C 4,0 C 3,1 km/h (1 Bft)
24.01.2016 21:05 3,2 C 17,6 C 3,6 C 3,9 C 3,9 C 0,7 C 82 % 90 % 0 % 1029,6 hPa 0,0 l/m 3,5 km/h (1 Bft) W 270 0 min 0,4 C 3,9 C 4,5 km/h (1 Bft)
24.01.2016 21:10 3,1 C 17,6 C 3,5 C 4,1 C 4,1 C 1,0 C 83 % 90 % 0 % 1029,1 hPa 0,0 l/m 3,2 km/h (1 Bft) W 270 0 min 0,5 C 4,1 C 2,6 km/h (1 Bft)
24.01.2016 21:15 3,1 C 17,6 C 3,5 C 4,0 C 4,0 C 0,9 C 83 % 91 % 0 % 1029,1 hPa 0,0 l/m 3,1 km/h (1 Bft) N-NO 22 0 min 0,5 C 4,0 C 4,3 km/h (1 Bft)
24.01.2016 21:20 2,8 C 17,7 C 3,5 C 3,6 C 3,6 C 0,8 C 84 % 91 % 0 % 1029,1 hPa 0,0 l/m 3,5 km/h (1 Bft) O-SO 112 0 min 0,4 C 3,6 C 5,5 km/h (1 Bft)
24.01.2016 21:25 2,8 C 17,7 C 3,5 C 3,4 C 3,4 C 0,6 C 84 % 90 % 0 % 1029,1 hPa 0,0 l/m 4,0 km/h (1 Bft) W 270 0 min 0,4 C 3,4 C 6,4 km/h (2 Bft)
24.01.2016 21:30 2,8 C 17,7 C 3,5 C 3,4 C 3,4 C 0,6 C 84 % 90 % 0 % 1029,1 hPa 0,0 l/m 3,7 km/h (1 Bft) W-SW 247 0 min 0,4 C 3,4 C 3,1 km/h (1 Bft)
24.01.2016 21:35 2,7 C 17,7 C 3,5 C 3,4 C 3,4 C 0,7 C 85 % 90 % 0 % 1029,1 hPa 0,0 l/m 3,4 km/h (1 Bft) W-SW 247 0 min 0,4 C 3,4 C 4,5 km/h (1 Bft)
24.01.2016 21:41 2,7 C 17,8 C 3,5 C 3,4 C 3,4 C 0,7 C 85 % 90 % 0 % 1029,1 hPa 0,0 l/m 3,4 km/h (1 Bft) N 0 0 min 0,4 C 3,4 C 2,9 km/h (1 Bft)
24.01.2016 21:50 2,7 C 17,8 C 3,4 C 3,3 C 3,3 C 0,6 C 86 % 90 % 0 % 1029,6 hPa 0,0 l/m 3,4 km/h (1 Bft) S-SO 157 0 min 0,6 C 3,3 C 6,1 km/h (2 Bft)
24.01.2016 21:55 2,7 C 17,8 C 3,3 C 3,6 C 3,6 C 0,9 C 86 % 90 % 0 % 1029,6 hPa 0,0 l/m 2,9 km/h (1 Bft) N-NW 337 0 min 0,6 C 3,6 C 2,1 km/h (1 Bft)
24.01.2016 22:00 2,5 C 17,8 C 3,3 C 3,4 C 3,4 C 0,9 C 86 % 90 % 0 % 1029,6 hPa 0,0 l/m 3,1 km/h (1 Bft) W-SW 247 0 min 0,4 C 3,4 C 4,3 km/h (1 Bft)
24.01.2016 22:05 2,5 C 17,8 C 3,3 C 3,3 C 3,3 C 0,8 C 86 % 89 % 0 % 1029,6 hPa 0,0 l/m 3,4 km/h (1 Bft) W-SW 247 0 min 0,4 C 3,3 C 8,0 km/h (2 Bft)
24.01.2016 22:10 2,5 C 17,8 C 3,4 C 2,9 C 2,9 C 0,4 C 87 % 90 % 0 % 1029,6 hPa 0,0 l/m 4,0 km/h (1 Bft) W-SW 247 0 min 0,6 C 2,9 C 6,9 km/h (2 Bft)
24.01.2016 22:15 2,5 C 17,8 C 3,3 C 2,9 C 2,9 C 0,4 C 87 % 89 % 0 % 1029,6 hPa 0,0 l/m 4,0 km/h (1 Bft) SW 225 0 min 0,6 C 2,9 C 11,1 km/h (2 Bft)
24.01.2016 22:20 2,5 C 17,8 C 3,3 C 2,8 C 2,8 C 0,3 C 87 % 89 % 0 % 1029,6 hPa 0,0 l/m 4,2 km/h (1 Bft) S 180 0 min 0,6 C 2,8 C 4,2 km/h (1 Bft)
24.01.2016 22:25 2,5 C 17,8 C 3,3 C 2,8 C 2,8 C 0,3 C 87 % 89 % 0 % 1029,6 hPa 0,0 l/m 4,3 km/h (1 Bft) NO 45 0 min 0,6 C 2,8 C 7,9 km/h (2 Bft)
24.01.2016 22:30 2,5 C 17,7 C 3,5 C 3,1 C 3,1 C 0,6 C 87 % 89 % 0 % 1029,6 hPa 0,0 l/m 3,7 km/h (1 Bft) SW 225 0 min 0,6 C 3,1 C 8,2 km/h (2 Bft)
24.01.2016 22:35 2,7 C 17,7 C 3,5 C 2,8 C 2,8 C 0,1 C 87 % 89 % 0 % 1029,6 hPa 0,0 l/m 4,2 km/h (1 Bft) SO 135 0 min 0,8 C 2,8 C 7,6 km/h (2 Bft)
24.01.2016 22:40 2,7 C 17,7 C 3,5 C 2,8 C 2,8 C 0,1 C 87 % 89 % 0 % 1029,6 hPa 0,0 l/m 4,3 km/h (1 Bft) NW 315 0 min 0,8 C 2,8 C 0,0 km/h (0 Bft)
24.01.2016 22:45 2,7 C 17,8 C 3,5 C 3,4 C 3,4 C 0,7 C 87 % 89 % 0 % 1029,6 hPa 0,0 l/m 3,2 km/h (1 Bft) S 180 0 min 0,8 C 3,4 C 2,9 km/h (1 Bft)
24.01.2016 22:50 2,5 C 17,8 C 3,4 C 3,6 C 3,6 C 1,1 C 87 % 89 % 0 % 1029,6 hPa 0,0 l/m 2,3 km/h (1 Bft) S 180 0 min 0,6 C 3,6 C 7,4 km/h (2 Bft)
24.01.2016 22:55 2,7 C 17,8 C 3,5 C 3,6 C 3,6 C 0,9 C 87 % 89 % 0 % 1029,6 hPa 0,0 l/m 2,7 km/h (1 Bft) W 270 0 min 0,8 C 3,6 C 2,7 km/h (1 Bft)
24.01.2016 23:00 2,5 C 17,8 C 3,3 C 3,3 C 3,3 C 0,8 C 87 % 89 % 0 % 1029,6 hPa 0,0 l/m 3,1 km/h (1 Bft) W 270 0 min 0,6 C 3,3 C 3,5 km/h (1 Bft)
24.01.2016 23:05 2,5 C 17,9 C 3,3 C 3,5 C 3,5 C 1,0 C 87 % 89 % 0 % 1029,6 hPa 0,0 l/m 2,7 km/h (1 Bft) S-SO 157 0 min 0,6 C 3,5 C 9,0 km/h (2 Bft)
24.01.2016 23:10 2,5 C 17,8 C 3,3 C 3,4 C 3,4 C 0,9 C 88 % 88 % 0 % 1029,6 hPa 0,0 l/m 2,9 km/h (1 Bft) W 270 0 min 0,7 C 3,4 C 3,4 km/h (1 Bft)
24.01.2016 23:15 2,5 C 17,8 C 3,3 C 2,9 C 2,9 C 0,4 C 88 % 88 % 0 % 1029,6 hPa 0,0 l/m 3,9 km/h (1 Bft) S-SW 202 0 min 0,7 C 2,9 C 3,1 km/h (1 Bft)
24.01.2016 23:20 2,5 C 17,8 C 3,3 C 2,8 C 2,8 C 0,3 C 88 % 88 % 0 % 1029,6 hPa 0,0 l/m 4,0 km/h (1 Bft) SO 135 0 min 0,7 C 2,8 C 6,8 km/h (2 Bft)
24.01.2016 23:25 2,5 C 17,7 C 3,5 C 3,1 C 3,1 C 0,6 C 88 % 88 % 0 % 1029,6 hPa 0,0 l/m 3,7 km/h (1 Bft) O-SO 112 0 min 0,7 C 3,1 C 14,2 km/h (3 Bft)
24.01.2016 23:30 2,5 C 17,7 C 3,4 C 3,1 C 3,1 C 0,6 C 88 % 88 % 0 % 1029,6 hPa 0,0 l/m 3,7 km/h (1 Bft) S 180 0 min 0,7 C 3,1 C 4,8 km/h (1 Bft)
24.01.2016 23:35 2,5 C 17,7 C 3,5 C 3,3 C 3,3 C 0,8 C 88 % 88 % 0 % 1029,6 hPa 0,0 l/m 3,4 km/h (1 Bft) O-SO 112 0 min 0,7 C 3,3 C 2,7 km/h (1 Bft)
24.01.2016 23:40 2,7 C 17,7 C 3,5 C 2,8 C 2,8 C 0,1 C 88 % 88 % 0 % 1029,6 hPa 0,0 l/m 4,2 km/h (1 Bft) SW 225 0 min 0,9 C 2,8 C 7,4 km/h (2 Bft)
24.01.2016 23:45 2,7 C 17,8 C 3,5 C 3,1 C 3,1 C 0,4 C 88 % 88 % 0 % 1029,6 hPa 0,0 l/m 3,9 km/h (1 Bft) S-SO 157 0 min 0,9 C 3,1 C 6,1 km/h (2 Bft)
24.01.2016 23:50 2,7 C 17,8 C 3,5 C 2,9 C 2,9 C 0,2 C 88 % 88 % 0 % 1029,6 hPa 0,0 l/m 4,0 km/h (1 Bft) SO 135 0 min 0,9 C 2,9 C 5,0 km/h (1 Bft)
24.01.2016 23:55 2,7 C 17,8 C 3,5 C 3,1 C 3,1 C 0,4 C 88 % 88 % 0 % 1029,6 hPa 0,0 l/m 3,7 km/h (1 Bft) W-NW 292 0 min 0,9 C 3,1 C 3,5 km/h (1 Bft)
_ Min-Zeit 08:15 15:15 06:25 09:00 09:00 15:30 15:25 09:00 00:00 21:10 - 01:30 - - - 08:15 09:00 00:10
Minimum _ 0,6 C 17,5 C 0,9 C 1,3 C 1,3 C 0,0 C 77 % 76 % 0 % 1029,1 hPa - 0,0 km/h (0 Bft) - - - -1,2 C -0,0 C 0,0 km/h (0 Bft)
_ Max-Zeit 14:40 00:00 14:30 14:15 14:15 11:30 00:00 21:15 11:30 00:00 00:00 15:30 - - 08:10 14:10 14:15 23:25
Maximum _ 5,6 C 18,3 C 5,1 C 7,8 C 7,8 C 2,7 C 88 % 91 % 71 % 1034,2 hPa 0,0 l/m 5,8 km/h
S-SO (2 Bft)
- - 5 min 2,2 C 7,8 C 14,2 km/h
O-SO (3 Bft)
Durchschnitt _ 2,8 C 17,8 C 2,8 C 3,9 C 3,8 C 1,1 C 84 % 84 % 15 % 1031,9 hPa #0,0 l/m 1,9 km/h (1 Bft) W-SW - #1:00 h 0,3 C 3,8 C 2,8 km/h (1 Bft)
2016 www.wetterstation-wechselburg.de